CAPE
4 1 1 1 1 1 2 1 1 2 6 1 1 1 2 3 1 0 0 0 0 0 0 0 0 0 0 1 52 34 142 71 18 162 76 62 4 0 0 14 13 0 26 34 102 114 260 295 12 0 5 0 11 100
3 2 3 2 6 2 1 2 4 6 1 1 1 1 1 2 3 3 0 0 0 0 0 0 0 0 0 0 0 0 50 51 39 3 20 1 0 0 0 114 27 3 37 16 56 72 21 287 291 110 0 0 0 33
1 3 2 1 4 8 11 7 8 4 3 1 1 1 1 3 5 4 0 0 0 0 0 0 0 0 0 0 0 0 0 0 23 33 56 89 0 0 0 0 9 0 0 45 46 79 333 135 45 0 0 0 0 0
2 4 2 5 4 4 4 5 4 5 4 3 2 1 1 2 2 2 0 0 0 0 0 0 0 0 0 0 0 0 0 0 0 179 27 0 0 0 0 0 0 0 2 45 261 348 249 193 84 23 0 0 0 2
3 2 4 4 3 2 2 3 3 4 4 4 1 0 1 1 1 0 0 0 0 0 0 0 0 0 0 0 0 0 0 0 0 0 0 20 0 0 0 0 0 1 36 146 287 240 68 151 35 1 0 0 0 44
15 16 9 1 1 1 1 2 2 3 4 2 4 4 2 0 2 0 0 0 0 0 0 0 0 0 0 0 0 0 0 0 0 0 0 0 0 1 17 263 191 108 44 36 42 57 19 0 0 0 0 33 16 28
18 10 12 1 2 1 1 1 2 3 3 2 2 1 1 0 0 0 0 0 0 0 0 0 0 5 4 0 0 0 0 0 0 0 0 0 0 0 23 176 202 60 0 0 0 0 0 0 0 0 0 0 0 54
10 5 1 2 3 3 2 2 3 3 0 0 0 0 0 0 0 0 0 0 0 0 0 0 4 10 9 8 0 0 0 0 0 0 0 0 0 7 135 44 0 0 0 0 0 0 0 0 0 0 0 0 0 0
9 10 7 5 4 4 3 3 4 1 0 0 0 0 0 0 0 0 0 0 0 0 0 0 2 12 0 2 12 4 0 0 0 0 0 0 22 125 102 0 0 0 0 0 0 0 0 0 0 0 0 0 0 0
10 9 6 4 3 3 4 6 4 0 0 0 0 0 0 0 0 0 0 0 0 0 0 0 0 4 0 0 0 9 0 0 0 0 0 36 43 2 0 0 0 0 0 0 0 0 0 0 0 0 0 0 0 0
3 4 5 4 4 8 4 4 1 0 0 0 0 0 0 0 0 0 0 0 0 0 0 0 0 2 0 0 2 0 0 0 13 1 8 51 45 0 0 0 0 0 0 0 0 0 0 0 0 0 0 0 0 0
0 0 1 1 3 2 0 0 0 0 0 0 1 0 0 0 0 0 0 0 16 2 0 0 0 1 0 0 0 0 0 0 0 0 32 101 51 4 29 14 0 0 0 0 0 0 0 0 0 0 0 0 0 0
0 0 0 0 0 0 0 0 0 0 0 0 2 1 0 0 0 0 0 1 0 0 0 0 1 0 0 0 0 0 0 0 0 4 18 28 19 1 13 19 7 0 0 0 0 0 0 0 0 0 0 0 0 0
0 0 0 0 0 0 0 0 0 1 0 0 0 0 0 11 1 4 23 21 11 9 7 6 6 11 0 3 0 0 0 0 3 1 76 51 7 6 2 11 9 5 0 0 0 0 0 0 0 0 0 0 0 0
0 0 1 0 0 0 0 0 0 0 0 0 0 0 0 4 25 13 38 39 1 4 3 3 3 3 2 18 7 0 2 8 29 60 36 2 20 2 1 17 0 1 0 10 8 0 0 0 0 0 0 0 0 0
1 0 0 0 0 0 0 0 0 0 0 0 0 0 0 0 16 23 66 26 2 1 1 14 21 3 6 13 9 5 10 13 9 0 1 2 40 51 18 24 39 28 0 14 35 45 3 0 0 0 0 0 0 0
1 0 0 0 0 0 0 0 0 3 21 3 7 34 156 44 37 4 4 0 22 9 1 6 0 3 0 0 8 7 23 4 0 25 0 4 18 41 61 49 49 1 0 0 10 22 11 0 0 0 0 0 0 0
0 0 0 0 1 0 0 0 0 22 26 25 54 1 38 22 3 9 126 4 63 17 0 0 2 23 7 11 0 2 0 0 0 4 26 23 22 19 51 0 0 0 0 10 14 27 44 36 7 0 0 0 0 0
1 1 0 0 1 0 0 10 33 11 22 31 45 8 0 0 17 1 3 0 16 2 1 13 0 1 0 0 0 0 0 0 0 0 9 7 16 59 2 0 4 6 37 25 13 40 49 20 40 17 18 13 13 8
0 0 0 0 0 0 0 1 21 2 18 8 25 27 3 13 47 46 0 0 0 0 21 31 30 21 41 70 0 0 0 0 1 10 2 0 0 7 4 7 40 51 73 80 147 17 103 46 21 22 14 57 26 32
0 0 0 0 0 0 0 0 0 0 0 23 7 0 0 41 17 20 8 2 14 3 27 11 41 7 0 0 0 6 5 1 14 0 0 0 0 16 9 6 1 1 12 15 4 7 8 0 15 0 0 0 12 37
0 0 0 0 0 0 0 0 0 0 0 3 2 18 23 20 1 0 0 15 6 12 22 43 12 41 38 19 36 24 26 11 0 0 1 4 22 4 0 0 0 0 1 3 3 0 0 8 0 0 0 2 0 0
0 0 0 0 0 0 0 0 1 0 0 1 6 3 8 7 1 0 0 1 4 0 0 18 44 20 19 36 26 14 4 0 0 9 33 1 0 0 0 0 0 0 0 0 0 0 0 0 0 0 0 0 0 0
0 0 0 0 0 0 0 8 14 20 25 14 27 9 2 8 8 7 1 0 0 0 0 1 14 9 1 3 2 7 4 1 2 36 16 0 1 40 36 11 0 0 0 0 0 0 4 9 5 0 1 4 1 0
0 0 0 0 0 1 4 9 17 38 41 31 40 18 39 26 26 19 23 8 5 0 0 0 5 0 0 0 0 5 32 117 52 98 33 22 6 10 19 11 19 22 1 2 4 2 0 0 0 1 10 8 31 20
0 0 0 9 3 3 2 13 27 31 22 30 34 25 13 17 21 18 17 39 20 38 4 6 0 0 0 0 0 0 26 27 46 111 35 29 33 20 7 10 6 15 17 5 9 6 0 1 0 12 24 16 30 0
0 1 19 8 1 2 5 12 14 22 46 38 27 27 24 27 8 0 0 5 15 15 56 32 35 1 0 0 0 12 12 31 29 23 28 23 0 0 0 1 0 0 0 45 18 0 0 0 0 1 0 0 2 7
2 5 6 2 4 1 7 5 17 10 5 0 1 30 31 26 9 4 37 42 33 27 48 32 9 1 1 4 2 0 1 0 6 21 5 0 0 0 0 0 0 0 0 0 3 26 0 0 0 0 0 0 0 0
0 1 3 2 0 2 2 5 9 3 6 3 3 0 17 21 43 10 11 31 21 12 20 44 26 0 0 0 2 0 2 1 4 8 5 14 0 8 2 0 0 0 0 0 0 0 0 0 0 0 0 0 0 0
4 0 0 0 4 16 2 0 0 0 0 0 0 1 10 27 55 27 30 66 60 36 33 14 3 1 0 0 0 9 2 0 0 0 17 25 29 11 18 2 3 1 0 0 0 0 0 0 0 0 0 0 0 0
1 0 2 0 4 9 0 3 13 5 0 0 1 20 11 39 37 10 1 2 17 40 27 14 13 16 0 2 5 19 9 7 5 4 2 0 2 8 0 0 0 0 0 0 0 0 0 0 0 0 3 0 0 3
1 0 0 7 5 2 113 21 8 0 0 10 38 68 31 30 11 1 26 6 40 14 0 14 23 22 11 1 0 0 0 0 0 0 0 0 0 0 0 0 0 0 0 0 0 0 0 0 0 0 0 0 0 0
32 15 33 30 15 78 26 49 24 6 3 46 115 211 134 36 22 55 35 10 3 24 2 12 10 23 18 49 29 6 0 0 0 0 0 0 0 0 0 0 0 0 0 0 0 0 0 0 0 0 0 0 0 0
CIN
-1 0 0 0 0 -1 0 0 0 0 0 0 0 0 0 0 0 0 0 0 0 0 0 0 0 0 0 -50 -156 -311 -147 -255 -374 -211 -191 -194 -144 0 -71 -272 -402 0 -275 -260 -256 -132 -77 -376 -168 0 -416 0 -509 -408
0 0 0 0 0 0 0 0 0 0 0 0 0 0 0 0 0 0 0 0 0 0 0 0 0 0 0 0 0 -2 -152 -214 -345 -39 -349 -193 -23 0 0 -138 -255 -34 -229 -171 -237 -144 -310 -376 -403 -467 0 0 0 -155
0 0 0 0 0 0 0 0 0 0 0 0 0 0 0 0 -1 0 0 0 0 0 0 0 0 0 0 0 0 0 0 0 -252 -456 -357 -298 -22 0 0 0 -225 0 0 -250 -158 -82 -167 -290 -500 0 0 0 0 0
0 0 0 0 0 0 0 0 0 0 0 0 0 0 0 0 0 0 0 0 0 0 0 0 0 0 0 0 0 0 0 0 0 -237 -146 0 0 0 0 0 0 0 -266 -145 -83 -173 -224 -218 -268 -332 0 -182 0 -79
0 0 0 0 0 0 0 0 0 0 0 0 0 0 0 0 0 0 0 0 0 0 0 0 0 0 0 0 0 0 0 0 0 0 0 -34 0 0 0 0 0 -55 -127 -145 -101 -226 -254 -206 -332 -213 0 0 0 -84
-3 -3 0 0 0 0 0 0 0 0 0 0 0 0 0 0 0 0 0 0 0 0 0 0 0 0 0 0 0 0 0 0 0 0 0 0 0 -199 -168 -140 -217 -252 -291 -288 -208 -258 -285 -12 0 0 0 -364 -425 -239
-5 -1 -2 0 0 0 0 0 0 0 0 0 0 0 0 0 0 0 0 0 0 0 0 0 0 -16 -30 0 0 0 0 0 0 0 0 0 0 0 -113 -126 -213 -240 0 0 0 0 0 0 0 0 0 0 0 -274
-2 -1 0 0 0 0 0 0 0 0 0 0 0 0 0 0 0 0 0 0 0 0 0 0 -55 -35 -73 -28 0 0 0 0 0 0 0 0 0 -46 -136 -238 0 0 0 0 0 0 0 0 0 0 0 0 0 0
0 0 0 0 0 0 0 0 0 0 0 0 0 0 0 0 0 0 0 0 0 0 0 0 -29 -28 0 -15 -127 -55 0 0 0 0 0 0 -207 -150 -165 0 0 0 0 0 0 0 0 0 0 0 0 0 0 0
0 0 0 0 0 0 0 0 0 0 0 0 0 0 0 0 0 0 0 0 0 0 0 0 0 -37 0 0 -2 -73 0 0 0 -2 0 -185 -145 -130 0 0 0 0 0 0 0 0 0 0 0 0 0 0 0 0
0 0 0 0 0 0 0 0 0 0 0 0 0 0 0 0 0 0 0 0 0 0 0 0 0 -27 0 0 -43 0 0 0 -33 -13 -10 -101 -142 0 0 0 0 0 0 0 0 0 0 0 0 0 0 0 0 0
0 0 0 0 0 0 0 0 0 0 0 0 0 0 0 0 0 0 0 0 -31 -6 0 0 0 -66 0 0 0 0 0 0 0 -6 -31 -56 -160 -128 -165 -180 0 0 0 0 0 0 0 0 0 0 0 0 0 0
0 0 0 0 0 0 0 0 0 -1 0 0 0 0 0 0 0 0 0 -7 0 0 0 0 -18 0 0 0 0 0 0 0 0 -13 -29 -96 -137 -28 -142 -132 -121 0 0 0 0 0 0 0 0 0 0 0 0 0
0 0 0 0 0 0 0 0 0 0 0 0 0 0 0 -20 -2 -38 -26 -46 -74 -67 -88 -74 -60 -28 0 -16 0 -2 0 -2 -9 -2 -29 -67 -82 -103 -137 -110 -91 -99 0 0 0 0 0 0 0 0 0 0 0 0
0 0 0 0 0 0 0 0 0 0 0 0 0 0 0 -37 -45 -74 -113 -79 -43 -91 -64 -53 -15 -45 -60 -22 -37 0 -8 -13 -33 -37 -80 -48 -109 -49 -38 -24 -41 -28 0 -58 -11 0 0 0 0 0 0 0 0 0
0 0 0 0 0 0 0 0 0 0 0 0 0 0 0 0 -46 -61 -84 -75 -62 -79 -235 -124 -63 -40 -20 -45 -20 -14 -7 -26 -65 0 -47 -117 -108 -90 -89 -78 -71 -69 0 -35 -44 -33 -11 0 0 0 0 0 0 0
0 0 0 0 0 0 0 0 0 -40 -31 -4 -28 -36 -22 -68 -63 -119 -113 0 -31 0 -10 -78 -6 -17 0 -1 -23 -100 -52 -110 0 -107 0 -93 -101 -64 -80 -69 -43 -4 0 0 -72 -51 -47 0 0 0 0 0 0 0
0 0 0 0 0 0 0 0 -5 -21 -10 -24 -18 -27 -84 -120 -67 -95 -56 -71 -86 -103 0 0 0 -44 -26 -18 -13 -107 0 -60 0 -140 -116 -107 -99 -87 -64 0 0 0 0 -51 -45 -64 -71 -72 -75 0 0 0 0 0
0 0 0 0 0 0 0 -52 -51 -16 -24 -34 -98 -60 0 0 -124 -15 -29 0 -70 -29 -21 -13 -5 -31 0 0 -69 0 0 0 0 -10 -124 -94 -87 -59 -20 0 -34 -56 -31 -69 -56 -73 -73 -72 -86 -101 -123 -132 -107 -127
0 0 0 0 0 0 0 -11 -56 -20 -24 -21 -69 -59 -84 -35 -75 -96 0 0 -27 -28 -26 -19 -16 -52 -87 -98 -35 0 0 0 -78 -71 -27 0 0 -51 -76 -59 -75 -71 -56 -52 -61 -77 -81 -89 -140 -95 -109 -107 -106 -78
0 0 0 0 0 0 0 0 0 0 0 -30 -37 -20 -4 -34 -58 -79 -49 -28 -38 -18 -40 -65 -71 -138 0 0 0 -154 -104 -73 -92 -1 0 0 -1 -81 -72 -97 -110 -25 -73 -91 -90 -94 -120 -1 -119 -2 0 -2 -127 -104
0 0 0 0 0 0 0 0 0 0 -13 -17 -31 -36 -35 -16 -15 0 0 -42 -29 -38 -57 -52 -66 -76 -82 -86 -83 -77 -70 -78 0 0 -9 -20 -45 -66 0 0 0 0 -65 -79 -80 0 -42 -148 0 0 0 -116 -87 0
0 0 0 0 0 0 0 0 -24 0 0 -22 -65 -48 -28 -38 -40 0 0 -25 -44 0 0 -104 -63 -76 -68 -95 -64 -55 -63 0 0 -100 -74 -12 0 0 0 0 0 0 0 0 0 0 0 -11 0 0 0 -58 0 0
0 0 0 0 0 0 0 -31 -58 -43 -44 -52 -62 -64 -80 -72 -139 -51 -3 -4 0 0 0 -17 -96 -59 -17 -47 -13 -67 -73 -19 -32 -122 -108 0 -43 -23 -59 -84 0 -64 0 0 0 0 -95 -111 -112 0 -120 -88 -57 0
0 0 0 0 0 -19 -18 -19 -16 -19 -11 -14 -19 -40 -74 -117 -22 -20 -15 -27 -53 0 0 -4 -57 0 0 0 -4 -83 -104 -87 -97 -77 -100 -102 -97 -86 -65 -123 -136 -121 -164 -139 -99 -51 -6 0 -6 -36 -91 -79 -50 -55
0 0 -29 -30 -20 -12 -14 -18 -10 -15 -17 -10 -15 -39 -45 -22 -14 -13 -23 -39 -50 -58 -22 -71 -16 0 0 0 0 -2 -117 -195 -157 -84 -110 -147 -139 -108 -92 -65 -93 -112 -201 -206 -175 -122 0 -68 -6 -39 -20 -48 -67 0
-8 -12 -21 -52 -24 -40 -24 -23 -37 -24 -7 -12 -30 -38 -16 -7 -11 0 0 -59 -55 -67 -62 -56 -56 -36 -65 -25 0 -120 -154 -153 -135 -101 -138 -151 0 -14 0 -8 0 0 0 -142 -130 0 0 0 0 -76 -17 0 -49 -101
-34 -49 -51 -36 -27 -16 -2 -17 -16 -12 -9 0 -24 -21 -14 -6 -15 -60 -59 -64 -55 -90 -80 -87 -142 -24 -24 -155 -182 0 -45 -20 -86 -61 -75 0 0 0 0 0 0 0 0 -16 -22 -128 0 0 0 0 0 0 0 0
-27 -56 -37 -16 -8 -18 -41 -36 -23 -33 -58 -37 -30 -4 -9 -31 -49 -69 -79 -96 -118 -93 -45 -40 -94 0 -27 0 -130 0 -213 -132 -62 -34 -58 -51 -9 -66 -84 0 0 0 0 0 0 0 0 0 0 0 0 0 0 0
-27 0 0 0 -32 -37 -50 0 0 0 0 -8 -21 -16 -44 -53 -95 -122 -95 -75 -74 -35 -61 -70 -126 -50 -41 0 0 -84 -168 0 0 -6 -61 -71 -90 -151 -137 -140 -120 -84 0 0 0 0 0 0 0 0 0 0 0 0
-45 -14 -15 0 -36 -76 -127 -164 -146 -143 0 0 -24 -31 -38 -38 -42 -103 -40 -34 -102 -66 -44 -41 -33 -32 -44 -73 -61 -68 -77 -121 -91 -112 -40 0 -154 -109 0 0 0 0 0 0 0 0 0 0 0 -13 -19 0 -7 -54
-31 -3 -2 -16 -18 -91 -50 -89 -130 0 0 -49 -20 -32 -29 -26 -23 -57 -99 -136 -71 -42 0 -53 -36 -30 -60 -45 -21 0 -2 0 0 0 0 0 0 0 0 0 0 0 0 0 0 0 0 0 0 0 0 0 0 0
-20 -32 -25 -14 -16 -26 -95 -87 -64 -96 -16 -45 -29 -34 -31 -33 -17 -33 -60 -88 -73 -70 -13 -45 -66 -77 -58 -47 -66 -69 0 0 0 0 0 0 0 0 0 0 0 0 0 0 0 0 0 0 0 0 0 0 0 0
Wind_Speed
18 19 19 20 20 20 21 21 21 21 20 21 20 19 18 17 17 9 7 5 2 3 8 6 4 2 5 1 2 4 5 4 4 5 4 4 3 1 4 4 4 6 4 3 3 2 3 4 3 5 7 2 4 6
18 19 19 20 19 21 21 21 20 19 21 21 20 19 17 16 13 9 4 4 2 4 9 3 13 17 13 17 3 1 6 4 5 5 2 3 2 4 6 3 1 3 7 4 1 4 5 4 3 2 4 6 4 2
18 17 18 20 20 20 19 19 20 21 21 21 20 19 19 14 10 5 4 4 3 3 7 1 8 13 7 11 7 3 4 3 2 6 4 2 3 4 4 4 2 2 2 4 8 14 7 3 2 4 6 4 6 9
16 17 19 19 19 19 20 20 21 21 21 20 21 21 19 15 11 6 3 2 1 3 2 8 5 6 9 5 5 6 6 2 4 3 4 4 3 2 4 3 3 2 6 5 6 5 4 4 5 6 9 9 12 12
16 17 17 18 19 20 22 22 22 22 22 23 22 22 19 16 13 7 6 5 4 2 3 6 11 7 6 4 2 3 3 0 1 2 2 3 4 5 2 3 2 5 6 4 5 1 4 5 6 6 7 7 8 5
15 16 16 19 20 21 22 23 24 24 23 24 22 20 19 16 10 1 3 2 7 4 1 4 5 5 3 4 1 3 1 0 2 3 3 2 6 5 4 2 2 2 3 3 5 5 4 6 7 12 8 12 12 7
16 17 17 19 20 21 22 23 24 25 27 25 23 21 17 10 2 3 4 3 3 0 1 5 5 6 3 2 3 2 3 1 3 1 1 1 1 5 4 3 5 1 6 3 5 4 7 11 5 9 10 12 10 10
17 18 19 20 21 22 23 24 26 27 27 28 26 20 14 6 6 5 3 8 6 1 1 2 6 3 3 1 1 2 1 3 3 3 3 1 4 4 4 2 4 4 6 8 8 8 4 3 9 11 10 11 12 10
18 19 20 21 21 22 23 24 26 28 30 30 25 11 1 1 1 3 4 10 1 4 2 2 2 4 4 3 2 4 3 1 3 2 3 5 4 3 6 5 5 4 4 6 7 8 7 8 6 8 8 10 8 10
19 20 20 21 21 21 22 23 25 28 32 26 3 4 3 2 12 4 2 1 1 2 1 4 2 2 4 3 4 2 3 0 2 5 2 5 2 1 3 5 6 6 7 6 6 5 5 5 5 5 6 5 5 6
19 20 20 21 22 22 22 20 20 25 10 6 6 3 5 15 3 1 2 3 2 3 4 5 5 3 3 3 1 1 2 1 2 6 4 2 3 4 6 7 6 7 8 7 5 3 4 3 3 5 6 4 6 8
20 21 21 21 21 20 18 16 12 5 1 4 5 6 4 4 2 1 4 3 4 5 3 4 3 5 2 4 3 3 2 3 4 1 3 3 3 4 7 7 6 7 7 6 4 5 4 4 3 2 3 5 5 6
21 21 21 21 22 20 18 16 14 11 11 1 2 3 2 2 2 4 4 4 2 3 2 1 1 3 3 4 2 3 2 4 2 2 3 4 4 6 6 5 6 6 7 6 5 4 5 3 3 3 3 4 5 6
22 22 22 22 20 18 15 15 15 8 3 2 3 5 5 4 5 4 4 4 6 4 3 3 1 4 1 3 2 3 4 2 2 2 1 3 5 7 7 6 6 7 8 7 7 6 4 4 4 3 4 5 4 5
24 25 25 14 9 13 16 18 14 2 2 3 2 4 5 4 1 3 6 6 11 5 4 3 4 4 1 2 1 3 0 2 2 2 3 3 5 4 3 4 6 6 5 3 2 4 6 6 4 3 2 2 2 2
26 22 3 8 19 23 23 12 2 3 3 3 4 4 5 6 5 6 4 3 8 10 3 4 3 3 2 3 2 4 2 3 1 3 3 0 2 6 3 3 5 4 3 3 3 3 4 6 6 5 4 4 3 3
23 5 11 22 23 25 12 1 2 4 4 4 3 3 3 2 1 1 1 1 4 6 4 2 4 5 0 2 2 4 3 2 2 2 1 3 1 3 2 1 2 3 2 3 4 4 3 5 6 4 5 5 6 6
5 9 23 24 16 8 3 2 2 3 3 4 4 4 2 3 3 2 1 2 3 3 2 4 3 4 2 3 1 1 2 2 3 4 1 3 2 2 3 3 1 2 3 5 3 3 4 5 6 5 7 6 5 5
15 15 25 23 4 2 3 3 3 2 4 2 4 3 0 3 1 2 1 2 1 3 4 2 4 3 1 2 3 3 3 3 1 1 2 4 3 3 1 1 3 4 3 2 2 3 4 5 5 5 4 3 3 3
24 16 16 11 9 2 3 5 2 0 3 4 3 2 2 3 3 2 2 2 2 3 1 3 4 3 3 1 2 4 3 3 1 1 2 3 2 2 3 3 3 4 2 1 2 3 1 1 1 2 2 3 3 2
10 4 5 4 2 3 3 3 4 3 3 2 3 2 1 0 3 3 1 2 3 3 1 2 1 1 4 2 2 2 3 3 2 3 3 1 2 0 1 1 1 1 0 1 2 2 2 2 2 3 3 3 4 3
5 8 3 2 2 2 3 4 3 3 1 4 4 1 2 1 1 2 2 2 2 1 2 2 1 3 3 3 2 3 3 4 3 1 4 2 2 2 2 2 1 2 1 2 2 1 1 3 3 2 3 3 2 2
9 1 2 2 2 3 8 2 2 3 2 4 3 3 2 3 2 3 3 1 1 1 2 2 2 3 2 1 4 3 3 2 1 2 2 1 1 2 2 3 2 2 3 3 1 3 0 0 1 2 2 2 1 1
1 2 3 3 1 4 4 3 2 2 2 4 2 2 3 2 2 2 3 3 2 4 4 5 2 3 3 3 2 0 1 1 2 3 1 3 3 3 2 3 2 2 3 3 4 4 4 3 3 3 4 5 4 2
3 5 3 5 4 2 3 5 4 1 3 2 2 3 3 2 2 3 2 3 2 2 3 4 3 1 3 2 1 1 3 2 2 2 3 1 2 3 3 3 1 2 1 4 3 2 2 2 1 3 4 2 2 3
1 3 3 2 3 1 3 4 4 4 4 4 3 4 3 3 4 3 2 2 2 2 2 2 2 3 3 2 2 1 2 1 2 2 4 3 3 5 3 3 1 3 4 3 4 3 3 4 4 3 4 7 6 5
3 2 2 2 2 3 3 3 4 3 2 4 4 4 3 3 2 3 3 3 1 3 1 3 4 5 3 4 4 3 2 1 3 4 4 3 3 5 5 5 4 4 4 5 4 3 3 4 4 5 6 7 7 6
4 2 2 4 3 2 3 3 2 5 5 3 3 4 4 3 2 4 2 1 2 2 3 4 5 5 5 3 4 5 4 4 4 2 5 5 4 4 4 2 1 3 4 5 4 5 5 4 4 3 1 1 3 3
4 3 1 6 1 1 2 2 2 2 2 2 1 2 2 1 1 1 3 3 2 3 4 4 2 3 6 0 3 4 2 5 7 8 7 3 5 5 5 4 3 4 4 4 6 5 6 4 4 4 5 2 4 1
3 1 1 2 2 4 5 5 3 2 0 1 2 2 3 5 3 1 1 2 4 1 3 3 6 5 3 2 2 2 3 3 3 4 2 2 3 4 4 3 4 3 3 5 4 6 11 7 4 4 1 2 4 4
2 1 3 3 4 5 4 4 3 1 2 2 1 1 2 3 3 4 1 1 1 1 1 2 2 2 5 3 1 2 3 3 4 4 1 3 1 1 3 5 5 4 5 5 9 10 8 8 6 6 7 6 6 4
2 4 2 3 4 4 2 2 1 2 4 3 3 1 1 2 2 3 2 2 2 2 2 2 3 2 4 4 4 4 8 5 3 3 5 3 3 3 4 4 4 5 6 7 6 6 7 7 6 8 7 7 5 6
3 2 3 1 0 3 2 4 4 2 0 2 2 1 2 2 2 3 2 1 2 2 2 2 3 3 2 3 4 4 4 3 2 1 1 1 1 2 1 2 3 4 5 5 4 4 7 8 6 7 7 8 7 7
Wind_Direction
334 333 334 334 336 335 333 332 333 334 333 334 334 336 338 342 346 349 275 245 168 268 278 247 290 345 344 77 99 247 34 320 43 81 137 215 165 198 26 343 111 135 89 329 338 71 197 333 359 148 218 99 263 269
335 335 333 336 333 333 334 333 332 330 331 331 331 331 333 334 337 340 283 309 320 201 249 266 263 250 233 234 178 125 194 240 153 105 193 163 193 144 170 160 283 148 154 164 14 295 252 264 236 282 175 152 196 289
334 333 335 336 335 333 332 330 331 332 330 328 326 326 328 327 325 317 274 288 335 310 299 342 254 256 208 220 182 149 306 227 104 164 148 159 161 125 143 214 105 10 128 127 79 247 265 292 212 209 220 224 259 178
333 334 334 328 326 327 325 324 324 326 328 324 322 322 323 321 316 293 238 265 308 268 266 284 320 323 299 174 188 165 184 306 119 150 140 159 162 155 181 142 132 176 114 203 238 260 316 42 270 252 234 238 260 268
330 330 328 326 326 326 327 325 324 322 319 317 320 322 320 319 312 282 235 238 230 130 259 280 309 256 225 173 214 21 97 42 115 88 93 201 118 127 66 98 183 189 184 170 210 195 182 239 296 328 10 5 347 48
319 321 327 328 327 326 325 324 323 321 319 315 310 309 311 313 317 275 6 215 215 204 283 316 287 290 152 162 253 316 323 2 100 127 219 248 172 103 116 147 266 177 112 185 203 237 179 309 25 18 22 5 346 323
329 329 326 325 325 325 324 323 322 320 318 312 311 307 301 291 238 183 193 206 110 76 92 308 301 275 152 83 333 347 357 264 113 290 320 223 244 103 87 145 211 138 129 72 28 66 16 25 8 5 16 12 359 13
331 328 323 322 323 323 323 324 322 319 315 314 311 306 293 255 247 302 258 242 142 146 108 258 269 338 43 289 260 167 87 24 340 206 0 66 0 66 75 125 141 104 102 54 58 64 108 42 21 19 21 21 18 13
324 322 320 320 321 321 322 323 323 320 316 314 311 310 97 97 196 252 172 139 160 143 203 273 213 255 2 335 330 15 73 27 300 174 228 90 351 44 188 146 110 81 94 108 64 55 49 50 31 12 9 9 14 341
323 322 320 319 318 318 320 323 323 318 318 310 16 29 324 230 321 295 24 105 52 225 214 220 242 275 77 5 355 53 17 204 1 257 80 76 76 20 137 133 127 97 92 89 69 33 31 36 27 15 8 356 335 316
321 321 320 318 316 320 322 320 321 321 347 10 5 312 298 300 11 356 256 167 204 213 199 231 182 178 310 97 215 139 187 308 36 272 116 98 134 184 157 117 109 103 87 82 110 110 88 95 24 19 357 6 346 340
320 320 320 318 319 318 317 316 320 350 263 282 294 293 292 322 351 247 243 272 170 220 252 146 200 154 234 107 93 317 133 40 236 267 70 103 257 134 107 109 108 116 124 142 147 124 85 25 9 23 356 9 5 348
318 317 317 316 315 311 307 304 308 293 306 201 186 257 168 271 12 214 230 264 246 252 229 120 51 137 21 56 78 90 107 236 13 63 181 193 147 142 139 133 155 174 155 164 160 151 141 109 46 49 28 14 23 13
319 316 314 314 307 297 295 296 313 325 294 259 212 305 172 246 234 212 238 245 240 184 163 140 124 126 176 66 143 116 236 92 200 116 42 164 171 163 171 172 162 186 184 180 173 168 142 102 92 61 38 16 25 26
320 318 315 299 291 303 305 302 296 228 241 262 257 242 232 268 321 289 28 349 359 306 111 67 43 91 20 107 135 75 97 239 57 139 188 220 181 163 191 164 146 139 156 141 144 157 172 165 154 150 160 108 58 25
323 319 255 312 330 326 318 308 165 185 251 236 254 306 310 355 333 3 19 356 16 324 318 55 53 55 197 156 111 210 165 62 222 220 220 186 138 130 179 166 167 164 158 185 204 176 178 181 179 187 175 181 181 193
319 236 327 332 330 319 310 228 176 223 248 272 273 23 352 46 215 259 133 43 47 308 17 334 96 257 159 126 144 27 89 161 287 322 275 208 157 129 151 185 184 168 157 255 208 202 188 170 171 163 206 226 204 203
249 298 311 311 329 305 278 204 256 255 253 270 37 300 266 185 254 294 99 305 146 165 50 4 300 271 101 84 69 128 132 212 219 139 235 275 181 178 144 183 244 257 204 217 215 182 205 177 189 223 235 232 206 215
290 295 292 292 285 317 318 277 201 296 269 323 192 249 299 299 184 167 176 309 56 95 125 150 324 346 32 140 145 152 199 160 198 322 45 293 276 238 254 276 296 292 296 289 290 236 229 219 206 226 230 160 196 226
305 289 276 277 168 216 272 271 67 45 281 266 303 337 136 301 325 334 68 346 355 78 83 187 193 213 147 211 140 157 172 134 176 66 312 319 273 285 301 288 265 257 226 330 6 23 343 335 240 204 140 168 148 233
312 284 11 146 170 209 264 307 315 214 278 300 308 68 136 320 272 318 90 156 100 199 313 323 78 121 122 123 112 122 95 112 119 155 196 283 296 171 29 356 34 356 45 311 283 315 328 213 218 171 168 186 202 215
266 322 315 261 275 263 250 247 208 265 300 260 341 18 249 258 273 271 311 51 100 132 203 296 245 154 128 147 150 125 110 82 57 31 44 117 40 4 322 272 356 316 338 263 198 69 339 266 189 190 175 207 151 130
295 260 276 290 345 31 263 339 353 293 324 285 5 23 18 340 306 9 39 340 328 319 293 325 43 54 86 11 91 89 108 105 56 27 57 132 18 337 353 6 16 79 64 351 169 130 277 294 93 104 83 74 88 27
71 310 308 299 232 259 299 298 230 264 288 313 9 323 277 236 135 70 50 338 302 325 342 323 344 17 19 35 58 133 283 54 68 350 79 98 59 344 104 93 99 121 157 153 72 59 37 27 41 68 66 59 44 334
12 298 103 310 271 310 292 304 293 316 293 310 200 288 278 140 84 61 54 305 315 260 265 304 32 131 151 181 224 245 15 97 97 355 299 142 120 3 10 71 150 235 281 87 103 63 1 292 177 160 180 181 30 314
47 258 141 317 304 327 319 329 329 305 301 351 331 307 7 60 58 22 328 297 275 269 294 338 68 48 34 79 124 140 212 180 62 19 290 276 190 170 194 157 106 290 248 178 147 217 253 290 293 23 322 325 318 283
330 303 273 235 210 291 300 270 272 285 13 22 333 327 328 72 94 256 273 286 275 288 3 116 64 73 57 12 346 346 355 306 213 231 254 265 176 171 157 172 188 234 209 217 220 219 236 251 262 269 280 287 272 270
253 270 243 279 325 238 216 265 289 28 347 321 21 5 9 19 210 239 200 237 300 16 46 60 85 80 37 12 354 338 340 309 317 1 19 34 23 18 354 343 231 129 150 184 209 218 221 204 210 246 200 246 295 341
261 244 278 287 307 29 311 290 293 201 232 87 30 286 264 172 136 170 267 284 335 101 68 60 337 133 196 298 307 286 324 28 52 50 64 35 10 343 342 358 20 344 318 303 288 259 275 277 264 279 295 304 296 106
246 181 110 284 277 242 226 189 207 244 305 227 253 346 49 355 311 341 359 35 70 122 204 200 153 170 213 197 219 348 11 37 73 117 96 293 266 292 332 4 335 336 357 9 327 300 300 301 332 335 319 349 27 28
248 262 254 231 237 233 204 107 88 60 315 354 322 33 141 153 319 309 285 319 31 44 338 280 193 144 147 143 139 69 325 290 265 300 276 227 204 20 352 354 4 39 34 34 49 38 30 33 24 15 34 93 113 120
264 256 283 279 305 55 54 70 40 35 359 1 326 263 160 142 231 282 269 90 17 349 301 119 119 149 158 184 200 184 196 233 249 311 335 353 38 25 10 37 37 47 42 38 48 60 51 41 27 26 15 12 57 88
263 282 280 268 248 248 275 133 169 142 243 308 304 251 203 134 107 274 18 55 127 142 80 328 314 347 274 212 194 200 217 234 138 144 312 309 301 22 33 60 46 52 43 34 47 80 68 58 54 51 37 26 17 5